Regional Weather Roundup
Issued by NWS Midland/Odessa, TX

Home | Current Version | Previous Version | Text Only | Print | Product List | Glossary On
Versions: 1 2 3 4 5 6 7 8 9 10 11 12 13 14 15 16 17 18 19 20 21 22 23 24 25 26 27 28 29 30 31 32 33 34 35 36 37 38 39 40 41 42 43 44 45 46 47 48 49 50
000
ASUS44 KMAF 270810
RWRMAF
MIDLAND AREA WEATHER ROUNDUP
NATIONAL WEATHER SERVICE MIDLAND TX
200 AM CST FRI FEB 27 2015

...IN SOUTHWEST TEXAS AND SOUTHEAST NEW MEXICO...

CITY           SKY/WX    TMP DP  RH WIND       PRES   REMARKS
ALPINE         CLOUDY    25  24  96 NE9       30.15F VSB 3/4 WCI  15
ANDREWS        CLOUDY    24  10  53 MISG      30.22S
ARTESIA        LGT SNOW  23  23 100 E8        30.19F VSB 1   WCI  14
BIG SPRING     CLOUDY    27   8  46 NE12      30.29F WCI  16
CARLSBAD       CLOUDY    28  19  69 E8        30.19F WCI  20
DRYDEN           N/A     32  21  64 NE13      30.22S WCI  22
FORT STOCKTON  CLOUDY    26  20  77 E8G25     30.20F WCI  18
GUAD PASS      FRZ RAIN  20  18  92 NE33      29.99F VSB 1/2 WCI   0
HOBBS          LGT SNOW  21  18  86 E14       30.20F WCI   8
MARFA          CLOUDY    25  23  93 NE15      30.07F WCI  12
MIDLAND AIRPK  LGT SNOW  26  16  67 E15G22    30.25F WCI  13
MIDLAND INTL   LGT SNOW  24  17  74 E16       30.23F WCI  11
ODESSA         LGT SNOW  23  17  78 E15       30.22F VSB 1   WCI  10
PECOS          CLOUDY    28  19  66 E12       30.23F WCI  18
PRESIDIO       FAIR      37  27  67 NE14      30.08F WCI  28
SEMINOLE       CLOUDY    24  10  56 E7        30.24S WCI  16
SNYDER         CLOUDY    24   7  48 NE15      30.31R WCI  11
WINK           CLOUDY    29  14  53 E12       30.21F WCI  19
$$
...OTHER STATIONS IN TEXAS...

CITY           SKY/WX    TMP DP  RH WIND       PRES   REMARKS
ABILENE        CLOUDY    25  12  58 NE9       30.34S WCI  15
AMARILLO       CLOUDY    19   3  49 E13       30.26F WCI   6
AUSTIN         CLOUDY    36  22  56 N12       30.36R WCI  28
BROWNSVILLE    PTCLDY    54  48  80 NE3       30.20S
CORPUS CHRISTI PTCLDY    42  34  73 NE23G31   30.26S WCI  33
DALLAS FTW     CLOUDY    29  10  45 NE17      30.43R WCI  17
DEL RIO        CLOUDY    38  27  64 NE8       30.29R WCI  32
EL PASO        CLOUDY    33  22  63 NE9       30.02S WCI  25
HOUSTON INT    CLOUDY    39  32  76 N9        30.32F WCI  33
LUBBOCK        CLOUDY    20   8  60 E15       30.27R WCI   6
SAN ANGELO     FLURRIES  29  16  58 E14       30.30S WCI  18
SAN ANTONIO    CLOUDY    38  23  55 NE14G23   30.31R WCI  30
WACO           CLOUDY    32  19  58 NE15      30.41S WCI  22
WICHITA FALLS  NOT AVBL
$$
...OTHER LOCATIONS IN NEW MEXICO...

CITY           SKY/WX    TMP DP  RH WIND       PRES   REMARKS
ALAMAGORDO     LGT SNOW  32  32 100 MISG      30.00F
ALBUQUERQUE    CLOUDY    25  17  72 E22G28    29.96S HAZE    WCI  10
CANNON AFB     LGT SNOW  16  14  93 SE15      30.18F FOG     WCI   1
CLOVIS         CLOUDY    16  12  86 SE16      30.20F VSB 1   WCI   0
HOLLOMAN AFB   FLURRIES  33  30  86 E2        29.98F
ROSWELL        LGT SNOW  23  21  92 SE12      30.18S VSB 3/4 WCI  12
RUIDOSO        LGT SNOW  16  14  93 SE10G17   30.00F WCI   3
SANTA FE       FLURRIES  18  11  74 SE20G28   29.95S WCI   2
TRUTH OR CONSE MOCLDY    34  33  96 N5        29.92S WCI  30
TUCUMCARI      LGT SNOW  20  16  84 E20       30.17F VSB 3/4 WCI   4
$$


USA.gov is the U.S. government's official web portal to all federal, state and local government web resources and services.